Weather reports worldwide

Advertisment
La Coruna/Alvedro, Spain (8002): temperature & dewpoint: 06.12.2018 00:00:00 - 12.12.2018 00:00:00 (CET)La Coruna/Alvedro, Spain (8002): wind speed: 06.12.2018 00:00:00 - 12.12.2018 00:00:00 (CET)La Coruna/Alvedro, Spain (8002): wind direction: 06.12.2018 00:00:00 - 12.12.2018 00:00:00 (CET)La Coruna/Alvedro, Spain (8002): reduced air pressure: 06.12.2018 00:00:00 - 12.12.2018 00:00:00 (CET)La Coruna/Alvedro, Spain (8002): visibility: 06.12.2018 00:00:00 - 12.12.2018 00:00:00 (CET)
Date & Time tt [°C] td [°C] ff [km/h] ff [kn] dd ppp [hPa] vv [km]
12.12.2018 00:00:00 7,2 6,6 9 5 S 1024,7 10
11.12.2018 23:00:00 8,8 7,6 5 3 S 1024,3 6
11.12.2018 22:00:00 9,9 8,8 8 4 SSW 1024,5 8
11.12.2018 21:00:00 10,9 8,6 8 4 W 1024,4 10
11.12.2018 20:00:00 11,1 8,4 5 3 WSW 1024,6 16
11.12.2018 19:00:00 11,2 10,4 13 7 NW 1024,3 4,9
11.12.2018 18:00:00 11,9 11,1 22 12 NNW 1023,2 3,3
11.12.2018 17:00:00 14,5 11,4 8 4 S 1022,1 16
11.12.2018 16:00:00 14,2 11,5 9 5 NW 1021,9 11
11.12.2018 15:00:00 15,1 10,9 11 6 SSW 1021,3 10
11.12.2018 14:00:00 14,5 9,9 8 4 S 1021,5 23
11.12.2018 13:00:00 15,5 9,4 11 6 S 1021,6 10
11.12.2018 12:00:00 14,4 5,3 8 4 S 1022,4 30
11.12.2018 11:00:00 13,5 3,9 9 5 SSW 1022,3 10
11.12.2018 10:00:00 12,2 3,0 13 7 WSW 1021,6 10
11.12.2018 09:00:00 9,3 0,8 0 0 N 1020,5 10
11.12.2018 08:00:00 8,2 1,6 4 2 - 1020,6 10
11.12.2018 07:00:00 7,0 1,9 11 6 S 1020,5 10
11.12.2018 06:00:00 6,9 2,2 15 8 S 1020,8 30
11.12.2018 05:00:00 6,0 3,0 9 5 S 1021,3 30
11.12.2018 04:00:00 8,2 2,0 9 5 S 1021,5 30
11.12.2018 03:00:00 6,6 3,2 15 8 S 1021,7 30
11.12.2018 02:00:00 6,7 3,8 18 10 S 1022,4 30
11.12.2018 01:00:00 6,4 4,7 13 7 S 1023,4 10
11.12.2018 00:00:00 7,3 5,8 11 6 S 1023,8 27
10.12.2018 23:00:00 7,9 5,9 13 7 S 1023,9 10
10.12.2018 22:00:00 7,8 6,4 11 6 S 1024,1 10
10.12.2018 21:00:00 9,3 7,7 11 6 S 1024,4 10
10.12.2018 20:00:00 10,0 7,4 9 5 S 1024,8 12
10.12.2018 19:00:00 11,6 7,5 8 4 S 1025,3 10
10.12.2018 18:00:00 13,2 8,1 4 2 - 1025,5 10
10.12.2018 17:00:00 14,1 8,4 0 0 N 1025,7 10
10.12.2018 16:00:00 14,9 7,7 0 0 N 1025,9 10
10.12.2018 15:00:00 15,8 7,7 0 0 N 1026,6 12
10.12.2018 14:00:00 13,7 7,5 2 1 - 1027,5 10
10.12.2018 13:00:00 12,0 5,2 8 4 S 1028,9 27
10.12.2018 12:00:00 8,3 6,4 2 1 SSE 1030,2 25
10.12.2018 11:00:00 5,3 5,2 4 2 - 1030,9 10
10.12.2018 10:00:00 3,2 3,1 9 5 S 1031,2 10
10.12.2018 09:00:00 2,4 2,3 9 5 S 1031,4 10
10.12.2018 08:00:00 2,3 2,2 8 4 S 1031,6 0,3
10.12.2018 07:00:00 2,9 2,8 11 6 S 1031,7 7
10.12.2018 06:00:00 2,8 2,7 9 5 S 1032,2 3,0
10.12.2018 05:00:00 3,5 3,4 8 4 SSW 1032,6 2,1
10.12.2018 04:00:00 4,0 3,9 9 5 S 1033,2 0,2
10.12.2018 03:00:00 4,9 4,8 5 3 S 1033,3 0,6
10.12.2018 02:00:00 4,7 4,4 8 4 S 1033,6 0,1
10.12.2018 01:00:00 5,4 5,1 8 4 S 1034,2 0,3
10.12.2018 00:00:00 6,5 6,1 8 4 S 1034,6 0,3
09.12.2018 23:00:00 6,7 6,0 5 3 S 1034,8 3,0
09.12.2018 22:00:00 8,3 6,9 0 0 N 1034,6 6
09.12.2018 21:00:00 9,1 7,4 4 2 NW 1034,5 6
09.12.2018 20:00:00 10,0 7,8 0 0 N 1034,4 5
09.12.2018 19:00:00 10,8 8,3 2 1 - 1034,2 5
09.12.2018 18:00:00 11,9 8,6 5 3 N 1033,9 7
09.12.2018 17:00:00 13,0 8,1 9 5 N 1033,4 8
09.12.2018 16:00:00 13,3 8,3 8 4 N 1033,0 8
09.12.2018 15:00:00 13,4 8,7 9 5 NNE 1033,2 9
09.12.2018 14:00:00 13,3 8,6 9 5 N 1033,6 8
09.12.2018 13:00:00 14,3 9,8 5 3 WNW 1033,5 10
09.12.2018 12:00:00 14,0 11,2 4 2 - 1034,3 10
09.12.2018 11:00:00 12,1 10,3 4 2 NW 1034,3 9
09.12.2018 10:00:00 11,2 10,5 2 1 - 1034,0 5
09.12.2018 09:00:00 11,1 10,3 4 2 - 1033,3 0,5
09.12.2018 08:00:00 11,6 11,1 8 4 WNW 1033,3 17
09.12.2018 07:00:00 11,8 11,3 8 4 W 1032,5 10
09.12.2018 06:00:00 11,7 11,2 9 5 SSW 1032,3 4,0
09.12.2018 05:00:00 11,6 11,0 8 4 S 1032,4 7
09.12.2018 04:00:00 11,6 11,0 8 4 SSE 1032,2 30
09.12.2018 03:00:00 11,9 11,0 8 4 S 1031,9 10
09.12.2018 02:00:00 12,4 11,0 15 8 SSW 1031,8 14
09.12.2018 01:00:00 12,8 10,9 16 9 SW 1031,8 10
09.12.2018 00:00:00 12,6 10,7 21 11 SSW 1031,7 30
08.12.2018 23:00:00 12,4 10,5 28 15 SW 1031,4 10
08.12.2018 22:00:00 12,3 10,5 22 12 SSW 1031,5 29
08.12.2018 21:00:00 12,2 10,6 28 15 SW 1031,3 10
08.12.2018 20:00:00 12,7 10,2 24 13 SW 1030,9 10
08.12.2018 19:00:00 12,3 9,8 26 14 SW 1030,8 6
08.12.2018 18:00:00 13,2 9,6 18 10 SSW 1030,4 10
08.12.2018 17:00:00 13,8 9,4 15 8 SSW 1030,3 10
08.12.2018 16:00:00 15,0 9,7 9 5 SSW 1030,4 10
08.12.2018 15:00:00 14,5 9,7 15 8 S 1030,8 22
08.12.2018 14:00:00 13,8 9,6 16 9 SSW 1031,3 19
08.12.2018 13:00:00 12,5 9,0 15 8 S 1031,7 15
08.12.2018 12:00:00 11,7 8,5 13 7 S 1032,3 10
08.12.2018 11:00:00 10,5 8,1 9 5 S 1032,2 10
08.12.2018 10:00:00 8,3 6,9 15 8 SSW 1031,9 12
08.12.2018 09:00:00 7,3 6,2 13 7 SSW 1031,7 10
08.12.2018 08:00:00 7,2 6,3 13 7 SSW 1032,2 15
08.12.2018 07:00:00 6,9 6,0 13 7 S 1031,7 10
08.12.2018 06:00:00 7,4 6,3 11 6 SSW 1031,4 10
08.12.2018 05:00:00 8,4 6,4 13 7 SW 1031,6 10
08.12.2018 04:00:00 7,7 6,5 15 8 SSW 1031,3 12
08.12.2018 03:00:00 7,4 5,9 13 7 SW 1031,8 10
08.12.2018 02:00:00 7,3 6,2 13 7 SSW 1031,6 12
08.12.2018 01:00:00 7,3 6,6 8 4 S 1031,6 10
08.12.2018 00:00:00 7,2 6,6 11 6 S 1031,6 10
07.12.2018 23:00:00 7,5 6,7 5 3 SSW 1031,7 10
07.12.2018 22:00:00 9,8 6,5 4 2 - 1031,8 10
07.12.2018 21:00:00 10,0 6,9 8 4 W 1031,5 13
07.12.2018 20:00:00 10,9 7,2 11 6 W 1031,1 14
07.12.2018 19:00:00 11,7 7,4 9 5 W 1030,7 13
07.12.2018 18:00:00 12,2 8,6 4 2 - 1030,0 10
07.12.2018 17:00:00 12,6 9,8 8 4 NW 1029,7 12
07.12.2018 16:00:00 12,9 10,6 11 6 W 1029,1 10
07.12.2018 15:00:00 12,1 10,7 16 9 WNW 1028,8 7
07.12.2018 14:00:00 13,0 12,1 18 10 WNW 1028,3 3,5
07.12.2018 13:00:00 13,7 12,6 18 10 WNW 1028,0 2,0
07.12.2018 12:00:00 14,7 12,6 16 9 WSW 1027,7 8
07.12.2018 11:00:00 14,5 11,8 22 12 SW 1027,1 30
07.12.2018 10:00:00 13,7 11,4 24 13 SW 1027,0 10
07.12.2018 09:00:00 13,8 11,0 21 11 SW 1026,6 30
07.12.2018 08:00:00 12,7 10,6 9 5 S 1027,0 10
07.12.2018 07:00:00 13,0 10,5 15 8 S 1027,2 30
07.12.2018 06:00:00 12,3 10,5 15 8 S 1027,1 30
07.12.2018 05:00:00 12,5 10,4 15 8 SSW 1027,5 30
07.12.2018 04:00:00 12,3 10,0 18 10 S 1027,3 10
07.12.2018 03:00:00 12,5 9,8 11 6 SSW 1027,8 10
07.12.2018 02:00:00 12,4 9,4 13 7 SW 1028,3 30
07.12.2018 01:00:00 12,1 9,3 15 8 S 1028,5 10
07.12.2018 00:00:00 11,4 9,3 11 6 S 1029,1 21
06.12.2018 23:00:00 10,1 8,9 4 2 - 1029,4 10
06.12.2018 22:00:00 11,1 9,0 5 3 SW 1029,6 10
06.12.2018 21:00:00 11,7 9,6 11 6 WSW 1029,8 10
06.12.2018 20:00:00 11,5 9,4 15 8 SW 1029,8 10
06.12.2018 19:00:00 11,7 8,7 11 6 SSW 1029,8 30
06.12.2018 18:00:00 13,4 9,4 9 5 SSW 1029,7 10
06.12.2018 17:00:00 15,7 9,1 11 6 W 1029,5 10
06.12.2018 16:00:00 17,0 9,5 5 3 WNW 1029,4 10
06.12.2018 15:00:00 15,6 9,6 8 4 WSW 1029,9 10
06.12.2018 14:00:00 16,2 10,6 13 7 WSW 1030,4 10
06.12.2018 13:00:00 15,8 10,7 11 6 SSW 1030,9 10
06.12.2018 12:00:00 14,3 10,3 15 8 SSW 1031,5 10
06.12.2018 11:00:00 12,8 10,5 22 12 SW 1031,3 10
06.12.2018 10:00:00 11,9 10,1 15 8 SSW 1030,7 23
06.12.2018 09:00:00 10,0 8,9 16 9 SSW 1030,3 30
06.12.2018 08:00:00 9,4 8,3 13 7 SW 1029,9 10
06.12.2018 07:00:00 9,5 8,4 15 8 SSW 1029,5 10
06.12.2018 06:00:00 9,3 8,6 13 7 S 1029,7 10
06.12.2018 05:00:00 8,8 8,3 9 5 S 1029,4 10
06.12.2018 04:00:00 9,8 9,1 5 3 SSE 1029,6 19
06.12.2018 03:00:00 10,6 9,2 11 6 SW 1028,9 10
06.12.2018 02:00:00 10,2 9,7 8 4 S 1028,6 10
06.12.2018 01:00:00 11,5 9,9 5 3 SSW 1028,6 10
06.12.2018 00:00:00 10,8 10,1 5 3 S 1028,4 10

tt = temperature
td = dewpoint
ff = wind speed
dd = wind direction
ppp = reduced air pressure
vv = visibility

Next stations